FW5359 Weather Reports


Display with metric or nautical units.
time (UTC)temp
F
wind
direction
speed
MPH
gust
MPH
rain 1hr
in
rain 24hr
in
rain mn
in
humidity
%
barometer
mb
20260510115656 67 236 0.0 0.0 0.00 0.00 0.00 88 1013.2
20260510115150 67 236 0.0 0.0 0.00 0.00 0.00 87 1013.1
20260510114644 67 236 0.0 0.0 0.00 0.00 0.00 87 1013.1
20260510114139 67 236 0.0 0.0 0.00 0.00 0.00 87 1013.1
20260510113902 67 236 0.0 0.0 0.00 0.00 0.00 87 1013.1
20260510113126 67 236 0.0 0.0 0.00 0.00 0.00 87 1013.1
20260510112620 67 236 0.0 0.0 0.00 0.00 0.00 87 1013.1
20260510112114 67 236 0.0 0.0 0.00 0.00 0.00 87 1013.1
20260510111608 67 236 0.0 0.0 0.00 0.00 0.00 87 1013.0
20260510111102 67 236 0.0 0.0 0.00 0.00 0.00 87 1013.1
20260510110555 67 236 0.0 0.0 0.00 0.00 0.00 87 1013.0
20260510105542 67 236 0.0 0.0 0.00 0.00 0.00 85 1013.1
20260510104530 67 236 0.0 1.0 0.00 0.00 0.00 86 1012.9
20260510104024 67 236 0.0 1.0 0.00 0.00 0.00 86 1013.0
20260510103517 67 236 0.0 2.0 0.00 0.00 0.00 86 1013.1
20260510103012 68 236 0.0 2.0 0.00 0.00 0.00 86 1013.1
20260510102506 68 236 0.0 0.0 0.00 0.00 0.00 86 1013.0
20260510102000 68 236 0.0 0.0 0.00 0.00 0.00 86 1013.0
20260510101726 68 236 0.0 0.0 0.00 0.00 0.00 86 1013.0
20260510100948 68 236 0.0 0.0 0.00 0.00 0.00 85 1013.1
20260510100442 68 236 0.0 0.0 0.00 0.00 0.00 85 1013.1
20260510095936 68 236 0.0 0.0 0.00 0.00 0.00 85 1013.0
20260510095430 68 236 0.0 0.0 0.00 0.00 0.00 84 1013.0
20260510094924 69 236 0.0 0.0 0.00 0.00 0.00 84 1013.0
20260510094417 69 236 0.0 0.0 0.00 0.00 0.00 83 1013.0
20260510093912 69 236 0.0 0.0 0.00 0.00 0.00 83 1013.1
20260510093406 69 236 0.0 0.0 0.00 0.00 0.00 83 1013.1
20260510092900 69 236 0.0 0.0 0.00 0.00 0.00 83 1012.9
20260510092353 70 236 0.0 0.0 0.00 0.00 0.00 83 1012.9
20260510091848 70 236 0.0 0.0 0.00 0.00 0.00 83 1012.9
20260510091343 70 236 0.0 0.0 0.00 0.00 0.00 83 1012.8
20260510090836 70 236 0.0 0.0 0.00 0.00 0.00 83 1012.8
20260510090330 70 236 0.0 0.0 0.00 0.00 0.00 82 1012.7
20260510085824 70 236 0.0 1.0 0.00 0.00 0.00 82 1012.7
20260510085318 70 236 0.0 1.0 0.00 0.00 0.00 82 1012.6
20260510084811 71 236 0.0 1.0 0.00 0.00 0.00 82 1012.5
20260510084306 71 236 0.0 1.0 0.00 0.00 0.00 81 1012.5
20260510083800 71 236 0.0 1.0 0.00 0.00 0.00 81 1012.5
20260510083254 71 236 0.0 1.0 0.00 0.00 0.00 80 1012.5
20260510082748 71 236 0.0 0.0 0.00 0.00 0.00 80 1012.6
20260510082242 72 236 0.0 0.0 0.00 0.00 0.00 80 1012.7
20260510081736 72 236 0.0 0.0 0.00 0.00 0.00 79 1012.7
20260510081230 72 236 0.0 0.0 0.00 0.00 0.00 79 1012.7
20260510080724 73 236 0.0 1.0 0.00 0.00 0.00 78 1012.6
20260510080218 73 236 0.0 1.0 0.00 0.00 0.00 78 1012.7
20260510075712 73 236 0.0 1.0 0.00 0.00 0.00 78 1012.6
20260510075444 73 236 0.0 1.0 0.00 0.00 0.00 78 1012.5
20260510074712 73 236 0.0 1.0 0.00 0.00 0.00 77 1012.5
20260510074443 73 236 0.0 1.0 0.00 0.00 0.00 77 1012.5
20260510073709 73 236 0.0 3.0 0.00 0.00 0.00 77 1012.5
20260510073208 74 236 0.0 3.0 0.00 0.00 0.00 77 1012.5
20260510072706 74 236 0.0 2.0 0.00 0.00 0.00 77 1012.7
20260510072209 74 236 0.0 2.0 0.00 0.00 0.00 77 1012.7
20260510071706 74 236 1.0 3.0 0.00 0.00 0.00 76 1012.7
20260510071436 74 237 1.0 4.0 0.00 0.00 0.00 76 1012.8
20260510070703 74 237 1.0 4.0 0.00 0.00 0.00 76 1012.7
20260510070204 74 237 0.0 3.0 0.00 0.00 0.00 76 1012.7
20260510065703 75 238 1.0 3.0 0.00 0.00 0.00 76 1012.8
20260510065436 75 238 1.0 3.0 0.00 0.00 0.00 75 1012.7
20260510064704 75 242 1.0 4.0 0.00 0.00 0.00 75 1012.8
20260510064204 75 243 1.0 4.0 0.00 0.00 0.00 75 1012.8
20260510063704 75 244 1.0 11.0 0.00 0.00 0.00 75 1012.8
20260510063204 75 246 1.0 11.0 0.00 0.00 0.00 76 1012.8
20260510062932 75 188 1.0 5.0 0.00 0.00 0.00 76 1012.8
20260510062433 75 183 1.0 3.0 0.00 0.00 0.00 76 1012.8
20260510061701 75 182 0.0 5.0 0.00 0.00 0.00 76 1012.8
20260510061204 75 182 0.0 5.0 0.00 0.00 0.00 76 1012.9
20260510060934 75 185 0.0 0.0 0.00 0.00 0.00 76 1012.9
20260510060202 76 185 0.0 0.0 0.00 0.00 0.00 76 1012.9
20260510055704 76 185 0.0 0.0 0.00 0.00 0.00 76 1013.0
20260510055201 76 185 0.0 0.0 0.00 0.00 0.00 76 1012.8
20260510054702 76 185 0.0 0.0 0.00 0.00 0.00 75 1012.8
20260510054202 76 185 0.0 0.0 0.00 0.00 0.00 75 1012.7
20260510053932 76 185 0.0 0.0 0.00 0.00 0.00 75 1012.7
20260510053202 76 185 0.0 0.0 0.00 0.00 0.00 75 1012.6
20260510052702 76 185 0.0 0.0 0.00 0.00 0.00 75 1012.6
20260510052202 76 185 0.0 0.0 0.00 0.00 0.00 75 1012.5
20260510051702 77 186 0.0 0.0 0.00 0.00 0.00 74 1012.5
20260510051208 77 186 0.0 0.0 0.00 0.00 0.00 73 1012.4
20260510050704 77 186 0.0 0.0 0.00 0.00 0.00 72 1012.4
20260510050429 78 186 0.0 3.0 0.00 0.00 0.00 72 1012.2
20260510045658 78 186 1.0 5.0 0.00 0.00 0.00 72 1012.1
20260510045152 78 186 1.0 5.0 0.00 0.00 0.00 71 1012.1
20260510044645 78 186 1.0 4.0 0.00 0.00 0.00 71 1012.1
20260510044139 78 188 1.0 6.0 0.00 0.00 0.00 71 1012.1
20260510043634 78 188 1.0 6.0 0.00 0.00 0.00 71 1012.1
20260510043358 78 183 0.0 0.0 0.00 0.00 0.00 71 1012.0
20260510042853 78 183 0.0 0.0 0.00 0.00 0.00 71 1011.9
20260510042115 78 183 0.0 0.0 0.00 0.00 0.00 71 1011.9
20260510041610 78 183 0.0 0.0 0.00 0.00 0.00 71 1011.9
20260510041104 79 183 0.0 0.0 0.00 0.00 0.00 70 1011.9
20260510040828 79 183 0.0 0.0 0.00 0.00 0.00 70 1011.9
20260510040052 79 183 0.0 0.0 0.00 0.00 0.00 70 1011.9
20260510035546 79 183 0.0 0.0 0.00 0.00 0.00 70 1011.8
20260510035040 79 183 0.0 0.0 0.00 0.00 0.00 70 1011.8
20260510034804 79 183 0.0 0.0 0.00 0.00 0.00 69 1011.8
20260510034027 79 183 0.0 0.0 0.00 0.00 0.00 69 1011.7
20260510033521 80 183 0.0 0.0 0.00 0.00 0.00 69 1011.8
20260510032509 80 183 0.0 0.0 0.00 0.00 0.00 68 1011.7
20260510032004 80 183 0.0 0.0 0.00 0.00 0.00 68 1011.7
20260510031458 80 183 0.0 0.0 0.00 0.00 0.00 68 1011.6
20260510030951 80 183 0.0 0.0 0.00 0.00 0.00 67 1011.6
20260510030451 80 183 0.0 0.0 0.00 0.00 0.00 67 1011.6
20260510025951 80 183 0.0 0.0 0.00 0.00 0.00 67 1011.5
20260510025450 81 183 0.0 0.0 0.00 0.00 0.00 67 1011.5
20260510024951 81 183 0.0 0.0 0.00 0.00 0.00 67 1011.4
20260510024451 81 183 0.0 2.0 0.00 0.00 0.00 67 1011.4
20260510023951 81 183 1.0 3.0 0.00 0.00 0.00 67 1011.3
20260510023451 81 183 0.0 3.0 0.00 0.00 0.00 67 1011.2
20260510023221 81 183 0.0 2.0 0.00 0.00 0.00 67 1011.2
20260510022451 81 183 0.0 2.0 0.00 0.00 0.00 67 1011.1
20260510021951 82 183 1.0 4.0 0.00 0.00 0.00 66 1011.0
20260510021451 82 182 1.0 4.0 0.00 0.00 0.00 66 1011.0
20260510021223 82 182 1.0 4.0 0.00 0.00 0.00 66 1010.9
20260510020452 83 183 1.0 3.0 0.00 0.00 0.00 65 1010.9
20260510015952 83 183 1.0 5.0 0.00 0.00 0.00 65 1010.8
20260510015451 83 183 1.0 5.0 0.00 0.00 0.00 64 1010.7
20260510014948 83 184 1.0 4.0 0.00 0.00 0.00 64 1010.6
20260510014448 83 184 1.0 3.0 0.00 0.00 0.00 64 1010.5
20260510013949 83 184 1.0 3.0 0.00 0.00 0.00 63 1010.4
20260510013442 84 185 0.0 3.0 0.00 0.00 0.00 63 1010.3
20260510013211 84 185 1.0 3.0 0.00 0.00 0.00 63 1010.2
20260510012440 84 185 1.0 3.0 0.00 0.00 0.00 63 1010.1
20260510011941 85 185 1.0 2.0 0.00 0.00 0.00 62 1010.0
20260510011712 85 185 1.0 4.0 0.00 0.00 0.00 62 1010.0
20260510010940 85 185 1.0 4.0 0.00 0.00 0.00 62 1009.9
20260510010441 85 184 2.0 5.0 0.00 0.00 0.00 62 1009.8
20260510005940 86 185 2.0 5.0 0.00 0.00 0.00 61 1009.8
20260510005438 86 198 1.0 4.0 0.00 0.00 0.00 61 1009.7
20260510004939 86 203 1.0 4.0 0.00 0.00 0.00 60 1009.7
20260510004436 87 205 1.0 4.0 0.00 0.00 0.00 60 1009.6
20260510003936 87 205 1.0 4.0 0.00 0.00 0.00 59 1009.5
20260510003436 87 205 1.0 4.0 0.00 0.00 0.00 58 1009.3
20260510003208 88 206 1.0 4.0 0.00 0.00 0.00 58 1009.1
20260510002434 88 209 1.0 5.0 0.00 0.00 0.00 57 1009.0
20260510001934 89 205 2.0 6.0 0.00 0.00 0.00 56 1008.9
20260510001436 89 180 2.0 6.0 0.00 0.00 0.00 55 1008.9
20260510000930 89 164 2.0 6.0 0.00 0.00 0.00 55 1009.1
20260510000425 89 164 2.0 6.0 0.00 0.00 0.00 54 1009.2
20260509235918 90 167 1.0 6.0 0.00 0.00 0.00 54 1009.3
20260509234906 90 166 2.0 6.0 0.00 0.00 0.00 54 1009.2
20260509234632 89 166 2.0 6.0 0.00 0.00 0.00 54 1009.1
20260509233855 90 167 2.0 7.0 0.00 0.00 0.00 54 1009.2
20260509233626 90 107 2.0 7.0 0.00 0.00 0.00 55 1009.2
20260509233114 90 156 2.0 6.0 0.00 0.00 0.00 54 1009.3
20260509232608 90 165 2.0 6.0 0.00 0.00 0.00 54 1009.3
20260509231830 91 217 2.0 6.0 0.00 0.00 0.00 53 1009.3
20260509231325 91 173 1.0 6.0 0.00 0.00 0.00 53 1009.3
20260509230820 92 218 1.0 5.0 0.00 0.00 0.00 54 1009.3
20260509230313 92 236 1.0 3.0 0.00 0.00 0.00 54 1009.3
20260509225807 92 236 2.0 5.0 0.00 0.00 0.00 53 1009.2
20260509225301 91 235 1.0 5.0 0.00 0.00 0.00 53 1009.1
20260509225025 91 219 1.0 4.0 0.00 0.00 0.00 54 1009.1
20260509224519 91 220 2.0 5.0 0.00 0.00 0.00 54 1009.2
20260509223742 91 229 2.0 5.0 0.00 0.00 0.00 55 1009.2
20260509223236 92 252 1.0 4.0 0.00 0.00 0.00 53 1009.1
20260509222731 92 252 1.0 4.0 0.00 0.00 0.00 53 1009.0
20260509222225 91 251 1.0 6.0 0.00 0.00 0.00 54 1009.1
20260509221719 91 256 2.0 6.0 0.00 0.00 0.00 54 1009.3
20260509221213 91 133 2.0 7.0 0.00 0.00 0.00 55 1009.2
20260509220707 91 234 2.0 7.0 0.00 0.00 0.00 55 1009.2
20260509215655 91 221 1.0 5.0 0.00 0.00 0.00 55 1009.3
20260509215149 91 246 1.0 6.0 0.00 0.00 0.00 54 1009.2
20260509214649 91 259 1.0 6.0 0.00 0.00 0.00 56 1009.3
20260509214146 90 178 1.0 4.0 0.00 0.00 0.00 56 1009.2
20260509213646 90 225 1.0 5.0 0.00 0.00 0.00 54 1009.3
20260509213144 91 225 1.0 5.0 0.00 0.00 0.00 54 1009.3
20260509212642 92 211 2.0 8.0 0.00 0.00 0.00 54 1009.5
20260509212415 91 191 2.0 8.0 0.00 0.00 0.00 55 1009.5
20260509211644 91 169 2.0 8.0 0.00 0.00 0.00 55 1009.5
20260509211414 91 235 1.0 7.0 0.00 0.00 0.00 55 1009.6
20260509210642 90 229 2.0 7.0 0.00 0.00 0.00 55 1009.7
20260509210142 90 224 2.0 7.0 0.00 0.00 0.00 55 1009.8
20260509205642 91 256 2.0 4.0 0.00 0.00 0.00 57 1009.9
20260509205142 91 253 2.0 4.0 0.00 0.00 0.00 56 1009.9
20260509204642 91 254 2.0 5.0 0.00 0.00 0.00 57 1010.0
20260509204140 91 296 1.0 8.0 0.00 0.00 0.00 57 1010.0
20260509203637 90 237 2.0 8.0 0.00 0.00 0.00 58 1010.2
20260509203138 90 250 2.0 7.0 0.00 0.00 0.00 58 1010.2
20260509202908 89 219 2.0 8.0 0.00 0.00 0.00 58 1010.5
20260509202138 89 196 1.0 8.0 0.00 0.00 0.00 61 1010.5
20260509201632 88 288 1.0 7.0 0.00 0.00 0.00 63 1010.6
20260509201126 87 290 2.0 7.0 0.00 0.00 0.00 62 1010.7
20260509200620 88 196 2.0 8.0 0.00 0.00 0.00 61 1010.8
20260509200113 88 210 2.0 8.0 0.00 0.00 0.00 61 1010.9
20260509195607 89 221 2.0 6.0 0.00 0.00 0.00 60 1011.0
20260509195107 89 171 2.0 9.0 0.00 0.00 0.00 61 1011.1
20260509194838 89 163 2.0 9.0 0.00 0.00 0.00 60 1011.1
20260509194107 89 171 2.0 7.0 0.00 0.00 0.00 62 1011.2
20260509193605 88 213 2.0 7.0 0.00 0.00 0.00 64 1011.2
20260509193106 87 245 2.0 7.0 0.00 0.00 0.00 63 1011.4
20260509192606 87 339 1.0 6.0 0.00 0.00 0.00 63 1011.4
20260509192106 87 217 1.0 6.0 0.00 0.00 0.00 64 1011.4
20260509191606 87 256 1.0 6.0 0.00 0.00 0.00 63 1011.4
20260509191106 87 263 1.0 6.0 0.00 0.00 0.00 63 1011.5
20260509190606 87 261 2.0 6.0 0.00 0.00 0.00 64 1011.5
20260509185606 87 274 2.0 7.0 0.00 0.00 0.00 63 1011.6
20260509185106 86 221 2.0 7.0 0.00 0.00 0.00 64 1011.7
20260509184605 86 215 2.0 7.0 0.00 0.00 0.00 66 1011.7
20260509184105 86 300 2.0 7.0 0.00 0.00 0.00 64 1011.8
20260509183606 87 213 2.0 7.0 0.00 0.00 0.00 63 1011.9
20260509183104 87 227 2.0 7.0 0.00 0.00 0.00 63 1011.9
20260509182603 86 244 2.0 7.0 0.00 0.00 0.00 67 1011.9
20260509182056 86 240 2.0 8.0 0.00 0.00 0.00 68 1012.0
20260509181555 86 248 3.0 9.0 0.00 0.00 0.00 67 1012.0
20260509181054 86 246 3.0 9.0 0.00 0.00 0.00 67 1012.2
20260509180835 86 224 3.0 10.0 0.00 0.00 0.00 65 1012.2
20260509180054 85 186 2.0 10.0 0.00 0.00 0.00 68 1012.1
20260509175552 85 259 3.0 7.0 0.00 0.00 0.00 69 1012.2
20260509175054 85 191 3.0 7.0 0.00 0.00 0.00 68 1012.2
20260509174551 85 232 3.0 8.0 0.00 0.00 0.00 69 1012.4
20260509174323 84 189 2.0 8.0 0.00 0.00 0.00 71 1012.5
20260509173821 84 252 3.0 10.0 0.00 0.00 0.00 72 1012.6
20260509173049 84 294 2.0 10.0 0.00 0.00 0.00 72 1012.6
20260509172550 83 211 1.0 7.0 0.00 0.00 0.00 73 1012.5
20260509172048 83 221 2.0 7.0 0.00 0.00 0.00 73 1012.7
20260509171545 83 249 2.0 7.0 0.00 0.00 0.00 74 1012.8
20260509171045 83 239 2.0 7.0 0.00 0.00 0.00 76 1012.8
20260509170545 82 262 1.0 7.0 0.00 0.00 0.00 76 1012.5
20260509170045 82 237 1.0 4.0 0.00 0.00 0.00 75 1012.6
20260509165550 82 234 1.0 6.0 0.00 0.00 0.00 74 1012.8
20260509165040 82 231 2.0 6.0 0.00 0.00 0.00 75 1012.9
20260509164534 82 283 2.0 7.0 0.00 0.00 0.00 75 1012.9
20260509163522 82 208 2.0 9.0 0.00 0.00 0.00 74 1012.7
20260509163021 82 274 2.0 8.0 0.00 0.00 0.00 74 1012.6
20260509162753 81 175 1.0 7.0 0.00 0.00 0.00 77 1012.6
20260509162023 80 171 2.0 6.0 0.00 0.00 0.00 80 1012.5
20260509161752 80 174 3.0 8.0 0.00 0.00 0.00 81 1012.4
20260509161021 79 172 3.0 8.0 0.00 0.00 0.00 81 1012.7
20260509160519 79 223 2.0 9.0 0.00 0.00 0.00 81 1013.0
20260509160019 80 198 2.0 9.0 0.00 0.00 0.00 81 1012.9
20260509155519 80 176 2.0 8.0 0.00 0.00 0.00 81 1012.8
20260509154516 80 166 2.0 9.0 0.00 0.00 0.00 81 1013.2
20260509154016 79 156 3.0 9.0 0.00 0.00 0.00 82 1013.1
20260509153745 78 169 3.0 6.0 0.00 0.00 0.00 83 1013.1
20260509153013 78 157 1.0 6.0 0.00 0.00 0.00 86 1013.1
20260509152513 77 159 1.0 5.0 0.00 0.00 0.00 87 1013.2
20260509152015 76 28 0.0 3.0 0.00 0.00 0.00 90 1013.2
20260509151511 75 28 0.0 3.0 0.00 0.00 0.00 92 1013.3
20260509151009 74 28 0.0 3.0 0.00 0.00 0.00 91 1013.2
20260509150738 74 28 0.0 2.0 0.00 0.00 0.00 92 1013.3
20260509145730 74 28 0.0 2.0 0.00 0.00 0.00 93 1013.5
20260509144952 74 28 1.0 2.0 0.00 0.00 0.00 93 1013.4
20260509144447 73 28 0.0 2.0 0.00 0.00 0.00 93 1013.3
20260509143941 73 28 0.0 1.0 0.00 0.00 0.00 93 1013.4
20260509143707 73 28 0.0 2.0 0.00 0.00 0.00 93 1013.4
20260509142929 73 28 0.0 2.0 0.00 0.00 0.00 94 1013.3
20260509142423 73 28 0.0 2.0 0.00 0.00 0.00 94 1013.3
20260509141917 73 28 0.0 2.0 0.00 0.00 0.00 94 1013.3
20260509141411 73 28 0.0 4.0 0.00 0.00 0.00 94 1013.2
20260509140904 73 28 1.0 4.0 0.00 0.00 0.00 94 1013.1
20260509140359 73 28 1.0 4.0 0.00 0.00 0.00 94 1013.1
20260509135853 73 28 1.0 6.0 0.00 0.00 0.00 95 1012.7
20260509135618 73 28 1.0 6.0 0.00 0.00 0.00 95 1012.2
20260509134841 73 55 0.0 2.0 0.00 0.00 0.00 95 1012.1
20260509134607 73 55 1.0 3.0 0.00 0.00 0.00 95 1012.1
20260509133829 73 55 0.0 3.0 0.00 0.00 0.00 95 1012.2
20260509133323 73 55 0.0 1.0 0.00 0.00 0.00 95 1012.6
20260509132816 73 55 0.0 1.0 0.00 0.00 0.00 95 1012.6
20260509132311 73 55 0.0 1.0 0.00 0.00 0.00 95 1012.7
20260509132035 73 55 1.0 3.0 0.00 0.00 0.00 95 1012.7
20260509131259 73 55 1.0 3.0 0.00 0.00 0.00 96 1012.6
20260509130755 73 55 1.0 3.0 0.00 0.00 0.00 96 1012.6
20260509130255 72 55 1.0 3.0 0.00 0.00 0.00 95 1012.4
20260509125755 72 55 1.0 3.0 0.00 0.00 0.00 96 1012.5
20260509125255 72 55 1.0 3.0 0.00 0.00 0.00 95 1012.9
20260509124755 72 55 1.0 3.0 0.00 0.00 0.00 95 1012.7
20260509124255 72 55 0.0 2.0 0.00 0.00 0.00 95 1012.7
20260509123255 72 55 0.0 3.0 0.00 0.00 0.00 96 1012.8
20260509122755 72 55 1.0 5.0 0.00 0.00 0.00 95 1012.7
20260509122255 72 55 1.0 5.0 0.00 0.00 0.00 95 1012.7
20260509121755 72 55 1.0 4.0 0.00 0.00 0.00 95 1012.6
20260509121254 72 55 1.0 4.0 0.00 0.00 0.00 95 1012.7
20260509120755 72 55 2.0 6.0 0.00 0.00 0.00 95 1012.9
20260509120255 72 53 2.0 6.0 0.00 0.00 0.00 95 1012.8